2024-149A

Last updated on Mon Sep 16 2024 00:02:03 GMT+0000 (Coordinated Universal Time)

1 60468U 24149A 24258.91522406 .00014722 00000+0 73006-3 0 9998 2 60468 97.4381 333.9762 0003184 339.1762 20.9342 15.17824058 4418
UTC large
Height (km)
Speed (km/s)
/
Latitude / Longitude
Inclination (degrees)
Orbital Period (minutes)
Azimuth
Elevation
Range (km)
Doppler Factor

Next 0 passes for location: London (51.5072 / 0.1276)

Sorry there are no passes over London.